GW3950 Weather Reports


Display with metric or nautical units.
time (UTC)temp
F
wind
direction
speed
MPH
gust
MPH
rain 1hr
in
rain 24hr
in
rain mn
in
humidity
%
barometer
mb
20260506123722 51 9 8.0 16.0 0.00 0.00 0.00 84 1011.2
20260506122747 51 339 8.0 16.0 0.00 0.00 0.00 84 1011.4
20260506120542 52 335 8.0 13.0 0.00 0.00 0.00 82 1011.2
20260506115534 52 342 6.0 14.0 0.00 0.00 0.00 81 1011.1
20260506114515 53 339 8.0 14.0 0.00 0.00 0.00 79 1011.1
20260506113454 53 331 8.0 13.0 0.00 0.00 0.00 79 1010.8
20260506112458 54 339 7.0 13.0 0.00 0.00 0.00 79 1010.6
20260506111517 54 348 6.0 12.0 0.00 0.00 0.00 78 1010.4
20260506110519 54 308 8.0 15.0 0.00 0.00 0.00 78 1010.1
20260506105513 55 330 7.0 15.0 0.00 0.00 0.00 78 1009.8
20260506104507 55 304 7.0 16.0 0.00 0.00 0.00 78 1009.8
20260506103520 55 19 8.0 16.0 0.00 0.00 0.00 77 1009.7
20260506102518 56 341 7.0 14.0 0.00 0.00 0.00 77 1009.4
20260506101543 56 355 8.0 14.0 0.00 0.00 0.00 77 1009.3
20260506100508 56 331 6.0 12.0 0.00 0.00 0.00 77 1009.2
20260506095505 56 344 5.0 11.0 0.00 0.00 0.00 77 1008.9
20260506094449 56 355 6.0 11.0 0.00 0.00 0.00 77 1008.6
20260506093419 56 343 6.0 11.0 0.00 0.00 0.00 77 1008.6
20260506092443 56 21 4.0 9.0 0.00 0.00 0.00 77 1008.7
20260506091440 56 321 6.0 11.0 0.00 0.00 0.00 77 1008.6
20260506090502 56 19 6.0 11.0 0.00 0.00 0.00 77 1008.4
20260506085520 57 338 5.0 8.0 0.00 0.00 0.00 77 1008.3
20260506084513 57 22 6.0 11.0 0.00 0.00 0.00 77 1008.3
20260506083458 57 5 5.0 11.0 0.00 0.00 0.00 78 1008.4
20260506082428 57 338 5.0 10.0 0.00 0.00 0.00 78 1007.9
20260506081453 57 351 6.0 10.0 0.00 0.00 0.00 79 1007.9
20260506080425 57 347 4.0 10.0 0.00 0.00 0.00 80 1008.0
20260506073416 57 327 4.0 11.0 0.00 0.00 0.00 80 1008.2
20260506072410 57 0 5.0 11.0 0.00 0.00 0.00 80 1008.1
20260506070219 57 12 5.0 9.0 0.00 0.00 0.00 81 1007.8
20260506062222 59 15 6.0 11.0 0.00 0.00 0.00 79 1007.5
20260506061223 59 13 7.0 14.0 0.00 0.00 0.00 78 1007.6
20260506060219 59 346 7.0 14.0 0.00 0.00 0.00 79 1007.5
20260506051241 60 5 7.0 14.0 0.00 0.00 0.00 78 1007.6
20260506043008 61 349 7.0 13.0 0.00 0.00 0.00 76 1007.5
20260506041954 62 302 5.0 13.0 0.00 0.00 0.00 76 1007.3
20260506041010 62 323 7.0 13.0 0.00 0.00 0.00 75 1007.4
20260506040002 63 333 7.0 13.0 0.00 0.00 0.00 75 1007.5
20260506034958 63 350 8.0 15.0 0.00 0.00 0.00 74 1007.5
20260506032803 64 329 7.0 15.0 0.00 0.00 0.00 74 1006.9
20260506031813 64 344 6.0 12.0 0.00 0.00 0.00 74 1006.7
20260506030749 64 355 7.0 12.0 0.00 0.00 0.00 74 1006.5
20260506025804 65 330 7.0 15.0 0.00 0.00 0.00 75 1006.2
20260506024803 65 348 8.0 15.0 0.00 0.00 0.00 74 1005.8
20260506023756 65 0 7.0 12.0 0.00 0.00 0.00 74 1005.8
20260506022809 66 347 5.0 10.0 0.00 0.00 0.00 73 1005.6
20260506021753 66 340 4.0 9.0 0.00 0.00 0.00 72 1005.5
20260506020735 66 339 5.0 13.0 0.00 0.00 0.00 71 1005.2
20260506015709 67 355 5.0 13.0 0.00 0.00 0.00 71 1005.3
20260506014734 67 355 6.0 11.0 0.00 0.00 0.00 71 1005.2
20260506013745 67 349 6.0 10.0 0.00 0.00 0.00 71 1004.8
20260506011635 68 5 9.0 16.0 0.00 0.00 0.00 70 1004.1
20260506010600 69 337 8.0 16.0 0.00 0.00 0.00 69 1003.7
20260506005621 70 329 10.0 17.0 0.00 0.00 0.00 69 1003.6
20260506004623 71 355 8.0 17.0 0.00 0.00 0.00 68 1003.2
20260506003641 71 307 7.0 12.0 0.00 0.00 0.00 67 1003.2
20260506002628 72 323 7.0 18.0 0.00 0.00 0.00 66 1003.0
20260506000456 73 349 10.0 16.0 0.00 0.00 0.00 65 1002.9
20260505235508 74 351 8.0 15.0 0.00 0.00 0.00 65 1002.9
20260505232325 76 335 9.0 17.0 0.00 0.00 0.00 61 1002.7
20260505231329 77 342 10.0 17.0 0.00 0.00 0.00 60 1002.6
20260505225235 80 339 8.0 16.0 0.00 0.00 0.00 57 1002.2
20260505224226 80 325 8.0 16.0 0.00 0.00 0.00 57 1002.4
20260505223242 81 316 9.0 15.0 0.00 0.00 0.00 57 1002.1
20260505222230 83 318 9.0 15.0 0.00 0.00 0.00 56 1002.1
20260505221239 84 16 9.0 14.0 0.00 0.00 0.00 54 1002.0
20260505220216 86 5 7.0 14.0 0.00 0.00 0.00 53 1001.8
20260505215144 86 9 8.0 13.0 0.00 0.00 0.00 50 1001.8
20260505213016 86 311 7.0 12.0 0.00 0.00 0.00 47 1001.9
20260505210844 88 323 6.0 14.0 0.00 0.00 0.00 43 1001.9
20260505205858 89 346 7.0 12.0 0.00 0.00 0.00 44 1001.9
20260505204842 91 323 5.0 12.0 0.00 0.00 0.00 42 1001.9
20260505203857 90 277 6.0 10.0 0.00 0.00 0.00 44 1001.9
20260505202839 90 252 4.0 10.0 0.00 0.00 0.00 46 1001.9
20260505201903 89 267 4.0 10.0 0.00 0.00 0.00 47 1001.9
20260505200835 89 196 4.0 11.0 0.00 0.00 0.00 50 1001.9
20260505195820 89 293 5.0 12.0 0.00 0.00 0.00 50 1002.2
20260505194825 89 231 6.0 12.0 0.00 0.00 0.00 52 1002.3
20260505192633 88 240 7.0 15.0 0.00 0.00 0.00 53 1002.2
20260505191627 88 227 7.0 15.0 0.00 0.00 0.00 52 1002.3
20260505190557 87 194 6.0 14.0 0.00 0.00 0.00 53 1002.0
20260505185615 87 222 6.0 19.0 0.00 0.00 0.00 56 1002.0
20260505183428 85 213 8.0 16.0 0.00 0.00 0.00 59 1002.0
20260505182416 85 180 9.0 16.0 0.00 0.00 0.00 61 1002.2
20260505181437 84 200 8.0 15.0 0.00 0.00 0.00 61 1002.2
20260505180403 84 190 7.0 17.0 0.00 0.00 0.00 61 1002.3
20260505175332 84 195 8.0 20.0 0.00 0.00 0.00 61 1002.2
20260505174323 83 192 9.0 20.0 0.00 0.00 0.00 66 1002.3
20260505173334 83 209 9.0 17.0 0.00 0.00 0.00 65 1002.2
20260505171209 83 195 8.0 16.0 0.00 0.00 0.00 64 1002.5
20260505170140 83 194 8.0 15.0 0.00 0.00 0.00 65 1002.3
20260505165123 82 184 9.0 16.0 0.00 0.00 0.00 65 1002.5
20260505164126 82 207 9.0 18.0 0.00 0.00 0.00 65 1002.4
20260505163108 82 218 8.0 18.0 0.00 0.00 0.00 68 1002.3
20260505162109 80 183 8.0 15.0 0.00 0.00 0.00 71 1002.2
20260505161126 79 210 9.0 15.0 0.00 0.00 0.00 72 1002.2
20260505160151 78 202 9.0 21.0 0.00 0.00 0.00 73 1002.0
20260505153054 76 226 9.0 17.0 0.00 0.00 0.00 77 1001.7
20260505152119 75 214 11.0 19.0 0.00 0.00 0.00 78 1001.9
20260505151044 74 213 10.0 21.0 0.00 0.00 0.00 78 1001.9